Regional Weather Roundup
Issued by NWS

Home | Current Version | Previous Version | Text Only | Print | Product List | Glossary On
Versions: 1 2 3 4 5 6 7 8 9 10 11 12 13 14 15 16 17 18 19 20 21 22 23 24 25 26 27 28 29 30 31 32 33 34 35 36 37 38 39 40 41 42 43 44 45 46 47 48 49 50
877
ASUS42 KFFC 231710
RWRGA
WEATHER ROUNDUP FOR GEORGIA
NATIONAL WEATHER SERVICE PEACHTREE CITY GA
1200 PM EST MON JAN 23 2017

NOTE: "FAIR" INDICATES FEW OR NO CLOUDS BELOW 12,000 FEET WITH NO
SIGNIFICANT WEATHER AND/OR OBSTRUCTIONS TO VISIBILITY.

* = USE WITH CAUTION. THE STATIONS MARKED WITH AN ASTERISK MAY NOT
REPORT WEATHER SUCH AS PRECIPITATION, FOG, OR THUNDER AND ARE NOT
QUALITY CONTROLLED BY NWS.

THE REMARK "TC" DENOTES TEMPERATURE READING IN DEGREES CELSIUS.

GAZ001>058-231800-
NORTH GEORGIA

CITY           SKY/WX    TMP DP  RH WIND       PRES   REMARKS
ATLANTA        CLOUDY    55  51  86 NW22G33   29.41R
ATHENS         CLOUDY    57  50  77 W13       29.33R
CHAMBLEE       CLOUDY    54  49  83 W17G30    29.40R
PEACHTREE CITY CLOUDY    56  49  77 NW17G29   29.45R
ROME           CLOUDY    57  47  69 NW17G32   29.47R
WEST ATLANTA   CLOUDY    56  49  77 W14G26    29.43R
GAINESVILLE    CLOUDY    54  50  86 W12       29.35R
CARTERSVILLE   CLOUDY    55  48  77 NW9       29.45R


CITY           SKY/WX    TMP DP  RH WIND       PRES   REMARKS
DALTON*        CLOUDY    54  48  82 NW24G32   29.45R
LAWRENCEVILLE* CLOUDY    57  50  77 NW17G25   29.39R
MARIETTA       LGT RAIN  54  50  88 W17G29    29.41R FOG
KENNESAW*      LGT RAIN  54  48  82 NW12G25   29.44R FOG
CANTON*        DRIZZLE   52  48  87 NW16G23   29.41R
$$

GAZ059>098-102>109-231800-
CENTRAL GEORGIA

CITY           SKY/WX    TMP DP  RH WIND       PRES   REMARKS
AUGUSTA-BUSH   PTSUNNY   60  47  61 W12       29.32S
AUGUSTA-DANIEL CLOUDY    58  44  60 W9        29.32S
COLUMBUS       CLOUDY    56  49  77 NW18      29.51R
MACON          CLOUDY    58  52  80 W18G28    29.40S
ROBINS AFB     CLOUDY    59  53  81 W18G25    29.40S


CITY           SKY/WX    TMP DP  RH WIND       PRES   REMARKS
LAGRANGE*      CLOUDY    56  53  89 NW23G33   29.51R
SYLVANIA*      PTSUNNY  N/A N/A N/A NW15      29.34F
MILLEDGEVILLE* CLOUDY    55  54  94 W8        29.37S
$$

GAZ099>101-110>166-231800-
SOUTH GEORGIA

CITY           SKY/WX    TMP DP  RH WIND       PRES   REMARKS
SAVANNAH       CLOUDY    57  50  77 W15G24    29.34S
VALDOSTA       CLOUDY    59  54  83 W17G23    29.50R HAZE
ALMA           LGT RAIN  57  57 100 W9        29.42R FOG
ST SIMONS      CLOUDY    60  51  72 W20G32    29.38S
FT STEWART     CLOUDY    59  48  67 W16G29    29.34S
ALBANY         CLOUDY    60  56  86 W18G26    29.52R
HUNTER AFB     CLOUDY    55  55 100 W18       29.32S
MOODY AFB      LGT RAIN  57  55  94 W13G24    29.48R
BRUNSWICK      CLOUDY    61  54  77 W18G26    29.40S


CITY           SKY/WX    TMP DP  RH WIND       PRES   REMARKS
BAINBRIDGE*    PTSUNNY   61  52  72 W20G25    29.57R
MOULTRIE*      CLOUDY    59  54  82 W14G25    29.52R
VIDALIA*       CLOUDY    59  54  82 NW15G22   29.39R
WAYCROSS*      LGT RAIN  60  60 100 W15       29.42S
DOUGLAS*       LGT RAIN  57  55  94 NW12G18   29.45R
$$




USA.gov is the U.S. government's official web portal to all federal, state and local government web resources and services.